• In Hungary
  • List of Countries
  • For 7 days
  • Water Temperature
  • Satellite Maps
  • Weather Map
  • News
  • Weather Widgets
  • user-avatar
    Login

    Hourly Weather Zolochev

    Today, 23 September, Sunday

    Time Temperature Precipitation Wind Pressure Humidity
    00:00 +20°C° 0 mm 4 mps 747 mmHg 44%
    01:00 +19°C° 0 mm 4 mps 747 mmHg 46%
    02:00 +19°C° 0 mm 3 mps 747 mmHg 51%
    03:00 +18°C° 0 mm 3 mps 747 mmHg 57%
    04:00 +17°C° 0 mm 4 mps 747 mmHg 62%
    05:00 +17°C° 0 mm 4 mps 747 mmHg 68%
    06:00 +15°C° 0.3 mm 5 mps 747 mmHg 71%
    07:00 +14°C° 0.3 mm 5 mps 748 mmHg 75%
    08:00 +13°C° 0 mm 5 mps 748 mmHg 78%
    09:00 +13°C° 1.2 mm 5 mps 748 mmHg 79%
    10:00 +12°C° 1.2 mm 5 mps 748 mmHg 80%
    11:00 +11°C° 1.2 mm 4 mps 749 mmHg 81%
    12:00 +12°C° 0.3 mm 4 mps 749 mmHg 75%
    13:00 +13°C° 0.3 mm 4 mps 749 mmHg 70%
    14:00 +14°C° 0.3 mm 4 mps 749 mmHg 64%
    15:00 +14°C° 0 mm 3 mps 749 mmHg 63%
    16:00 +14°C° 0 mm 3 mps 749 mmHg 62%
    17:00 +15°C° 0 mm 2 mps 749 mmHg 61%
    18:00 +14°C° 0 mm 2 mps 750 mmHg 64%
    19:00 +13°C° 0 mm 2 mps 750 mmHg 67%
    20:00 +12°C° 0 mm 2 mps 750 mmHg 69%
    21:00 +12°C° 0 mm 2 mps 750 mmHg 71%
    22:00 +12°C° 0 mm 2 mps 750 mmHg 72%
    23:00 +10°C° 0 mm 2 mps 750 mmHg 74%

    Tomorrow, 24 September, Monday

    Time Temperature Precipitation Wind Pressure Humidity
    00:00 +10°C° 0 mm 2 mps 750 mmHg 75%
    01:00 +10°C° 0 mm 2 mps 750 mmHg 77%
    02:00 +9°C° 0 mm 2 mps 750 mmHg 78%
    03:00 +9°C° 0 mm 2 mps 750 mmHg 79%
    04:00 +9°C° 0 mm 2 mps 749 mmHg 80%
    05:00 +9°C° 0 mm 3 mps 749 mmHg 81%
    06:00 +10°C° 0 mm 4 mps 749 mmHg 74%
    07:00 +12°C° 0 mm 5 mps 748 mmHg 68%
    08:00 +13°C° 0 mm 6 mps 748 mmHg 61%
    09:00 +15°C° 0 mm 6 mps 748 mmHg 57%
    10:00 +16°C° 0 mm 7 mps 747 mmHg 53%
    11:00 +17°C° 0 mm 7 mps 747 mmHg 48%
    12:00 +17°C° 0.1 mm 7 mps 746 mmHg 48%
    13:00 +17°C° 0.1 mm 8 mps 745 mmHg 48%
    14:00 +18°C° 0.1 mm 8 mps 744 mmHg 48%
    15:00 +17°C° 0.6 mm 8 mps 743 mmHg 52%
    16:00 +17°C° 0.6 mm 7 mps 743 mmHg 56%
    17:00 +17°C° 0.6 mm 7 mps 742 mmHg 59%
    18:00 +16°C° 1.5 mm 7 mps 742 mmHg 66%
    19:00 +15°C° 1.5 mm 7 mps 742 mmHg 74%
    20:00 +14°C° 1.5 mm 7 mps 742 mmHg 81%
    21:00 +12°C° 1 mm 7 mps 742 mmHg 81%
    22:00 +11°C° 1 mm 7 mps 743 mmHg 82%
    23:00 +10°C° 1 mm 6 mps 743 mmHg 82%

    Day after tomorrow, 25 September, Tuesday

    Time Temperature Precipitation Wind Pressure Humidity
    00:00 +9°C° 0.1 mm 6 mps 743 mmHg 82%
    01:00 +9°C° 0.1 mm 6 mps 743 mmHg 81%
    02:00 +9°C° 0.1 mm 6 mps 744 mmHg 81%
    03:00 +8°C° 0 mm 6 mps 744 mmHg 83%
    04:00 +8°C° 0 mm 5 mps 744 mmHg 85%
    05:00 +7°C° 0 mm 5 mps 744 mmHg 87%
    06:00 +8°C° 0 mm 5 mps 745 mmHg 85%
    07:00 +8°C° 0 mm 6 mps 745 mmHg 82%
    08:00 +9°C° 0 mm 6 mps 746 mmHg 79%
    09:00 +9°C° 0 mm 6 mps 746 mmHg 76%
    10:00 +10°C° 0 mm 6 mps 746 mmHg 73%
    11:00 +10°C° 0 mm 6 mps 747 mmHg 71%
    12:00 +10°C° 0.1 mm 6 mps 747 mmHg 70%
    13:00 +10°C° 0.1 mm 5 mps 748 mmHg 69%
    14:00 +10°C° 0.1 mm 5 mps 748 mmHg 68%
    15:00 +10°C° 0.1 mm 5 mps 749 mmHg 67%
    16:00 +9°C° 0.1 mm 5 mps 749 mmHg 66%
    17:00 +10°C° 0.1 mm 4 mps 750 mmHg 65%
    18:00 +8°C° 0 mm 4 mps 750 mmHg 67%
    19:00 +8°C° 0 mm 3 mps 751 mmHg 69%
    20:00 +7°C° 0 mm 3 mps 752 mmHg 71%
    21:00 +7°C° 0 mm 3 mps 752 mmHg 72%
    22:00 +5°C° 0 mm 3 mps 752 mmHg 74%
    23:00 +6°C° 0 mm 2 mps 753 mmHg 75%

    26 September, Wednesday

    Time Temperature Precipitation Wind Pressure Humidity
    00:00 +6°C° 0 mm 2 mps 753 mmHg 77%
    01:00 +4°C° 0 mm 3 mps 753 mmHg 79%
    02:00 +4°C° 0 mm 3 mps 754 mmHg 81%
    03:00 +3°C° 0 mm 3 mps 754 mmHg 82%
    04:00 +3°C° 0 mm 3 mps 755 mmHg 83%
    05:00 +3°C° 0 mm 3 mps 755 mmHg 85%
    06:00 +4°C° 0 mm 3 mps 755 mmHg 80%
    07:00 +5°C° 0 mm 4 mps 756 mmHg 76%
    08:00 +5°C° 0 mm 4 mps 756 mmHg 72%
    09:00 +7°C° 0 mm 4 mps 757 mmHg 66%
    10:00 +8°C° 0 mm 4 mps 757 mmHg 61%
    11:00 +10°C° 0 mm 4 mps 757 mmHg 55%
    12:00 +10°C° 0.1 mm 4 mps 757 mmHg 52%
    13:00 +11°C° 0.1 mm 4 mps 757 mmHg 50%
    14:00 +10°C° 0.1 mm 5 mps 757 mmHg 48%
    15:00 +10°C° 0 mm 4 mps 758 mmHg 49%
    16:00 +10°C° 0 mm 3 mps 758 mmHg 51%
    17:00 +9°C° 0 mm 3 mps 758 mmHg 52%
    18:00 +8°C° 0 mm 3 mps 758 mmHg 54%
    19:00 +7°C° 0 mm 2 mps 759 mmHg 56%
    20:00 +6°C° 0 mm 2 mps 759 mmHg 59%
    21:00 +6°C° 0 mm 2 mps 759 mmHg 60%
    22:00 +5°C° 0 mm 2 mps 759 mmHg 61%
    23:00 +5°C° 0 mm 2 mps 759 mmHg 63%

    27 September, Thursday

    Time Temperature Precipitation Wind Pressure Humidity
    00:00 +5°C° 0 mm 2 mps 758 mmHg 64%
    01:00 +4°C° 0 mm 3 mps 758 mmHg 66%
    02:00 +3°C° 0 mm 3 mps 758 mmHg 68%
    03:00 +3°C° 0 mm 3 mps 758 mmHg 69%
    04:00 +3°C° 0 mm 3 mps 757 mmHg 70%
    05:00 +3°C° 0 mm 4 mps 757 mmHg 70%
    06:00 +3°C° 0 mm 5 mps 757 mmHg 66%
    07:00 +5°C° 0 mm 6 mps 756 mmHg 62%
    08:00 +6°C° 0 mm 7 mps 756 mmHg 57%
    09:00 +8°C° 0 mm 7 mps 755 mmHg 53%
    10:00 +10°C° 0 mm 8 mps 755 mmHg 49%
    11:00 +11°C° 0 mm 8 mps 754 mmHg 45%
    12:00 +12°C° 0 mm 8 mps 754 mmHg 44%
    13:00 +12°C° 0 mm 8 mps 753 mmHg 44%
    14:00 +13°C° 0 mm 8 mps 753 mmHg 43%
    15:00 +12°C° 0 mm 7 mps 753 mmHg 47%
    16:00 +13°C° 0 mm 6 mps 753 mmHg 51%
    17:00 +12°C° 0 mm 5 mps 752 mmHg 55%
    18:00 +12°C° 0 mm 5 mps 752 mmHg 58%
    19:00 +12°C° 0 mm 5 mps 753 mmHg 60%
    20:00 +10°C° 0 mm 5 mps 753 mmHg 63%
    21:00 +11°C° 0 mm 4 mps 753 mmHg 66%
    22:00 +11°C° 0 mm 4 mps 753 mmHg 68%
    23:00 +10°C° 0 mm 4 mps 753 mmHg 71%

    28 September, Friday

    Time Temperature Precipitation Wind Pressure Humidity
    00:00 +10°C° 0 mm 4 mps 752 mmHg 75%
    01:00 +10°C° 0 mm 3 mps 752 mmHg 79%
    02:00 +9°C° 0 mm 3 mps 752 mmHg 83%
    03:00 +9°C° 0 mm 3 mps 752 mmHg 87%
    04:00 +8°C° 0 mm 3 mps 752 mmHg 91%
    05:00 +8°C° 0 mm 3 mps 752 mmHg 94%
    06:00 +9°C° 0 mm 3 mps 752 mmHg 90%
    07:00 +10°C° 0 mm 3 mps 752 mmHg 86%
    08:00 +11°C° 0 mm 4 mps 752 mmHg 83%
    09:00 +13°C° 0 mm 4 mps 752 mmHg 76%
    10:00 +15°C° 0 mm 4 mps 751 mmHg 70%
    11:00 +16°C° 0 mm 5 mps 751 mmHg 64%
    12:00 +17°C° 0 mm 5 mps 751 mmHg 62%
    13:00 +19°C° 0 mm 5 mps 750 mmHg 60%
    14:00 +20°C° 0 mm 5 mps 750 mmHg 58%
    15:00 +19°C° 0 mm 5 mps 750 mmHg 61%
    16:00 +18°C° 0 mm 4 mps 750 mmHg 64%
    17:00 +18°C° 0 mm 4 mps 749 mmHg 68%
    18:00 +17°C° 0 mm 4 mps 750 mmHg 72%
    19:00 +16°C° 0 mm 3 mps 750 mmHg 76%
    20:00 +14°C° 0 mm 3 mps 750 mmHg 81%
    21:00 +14°C° 0 mm 3 mps 750 mmHg 83%
    22:00 +13°C° 0 mm 3 mps 750 mmHg 86%
    23:00 +13°C° 0 mm 3 mps 750 mmHg 88%
    Show more